Theta_e
302 304 313 320 320 322 324 326 330 329 330 329 327 329 329 329 329 330 329 329 329 328 326 328 332 330 332 333 331 331 329 331 335 337 339 339 334 334 335 334 334 332 332 332 332 333 330 329 330 330 331 330 329 327 327 327 328 328 328 328 327 327 327 327 328 328 327 327 327 326 326 326 326 325 325 325 325 324 324 323 323 323 323 323 323 323 323 323 322 322 321 320 319 319 318 317 317
302 308 318 320 320 324 324 325 327 327 328 326 326 330 328 328 329 328 327 326 326 324 321 327 331 329 333 335 332 331 330 333 336 336 337 335 333 335 334 334 334 333 333 332 332 332 330 329 329 331 331 330 330 328 326 325 327 328 328 328 327 327 327 327 328 327 327 326 326 326 326 326 326 325 324 324 324 324 323 322 323 323 323 323 324 324 323 322 322 321 320 319 319 318 317 317 316
303 311 319 320 321 323 323 324 325 324 324 321 323 328 327 328 327 325 323 321 321 319 320 327 331 331 331 332 332 332 333 334 335 336 337 334 334 335 334 333 333 333 333 332 332 331 331 330 329 331 331 331 330 329 327 326 327 328 328 328 327 327 327 327 327 327 327 326 326 326 326 326 325 324 324 324 324 323 322 322 323 323 322 322 323 322 322 321 321 320 319 318 318 317 317 316 315
307 314 318 321 323 322 324 324 324 322 319 318 319 325 325 325 325 322 321 318 319 318 321 327 331 332 331 331 332 332 333 334 337 338 338 335 334 334 333 333 333 333 332 332 332 331 331 330 330 330 331 331 330 329 328 327 328 328 328 328 327 327 327 327 327 327 326 326 326 326 326 325 325 325 324 324 323 322 322 322 323 322 322 322 322 322 321 320 319 319 318 318 317 317 316 315 315
311 317 318 322 323 321 324 323 324 321 317 318 317 324 325 323 322 319 318 317 318 319 321 326 329 331 331 332 332 331 332 334 338 338 338 336 333 333 333 332 332 332 332 333 332 331 331 330 330 330 330 331 330 330 328 327 328 328 327 327 327 326 326 327 326 326 326 326 326 326 325 325 325 325 324 323 322 322 322 322 322 322 321 321 321 321 320 320 319 318 318 317 317 316 315 315 315
315 319 319 321 321 320 322 320 321 320 320 321 318 323 324 321 320 317 318 318 319 321 323 326 329 331 330 332 332 333 334 335 338 337 338 337 333 333 333 332 331 331 332 332 332 331 331 330 329 330 330 330 330 330 328 327 328 328 326 326 327 326 326 326 326 326 325 326 326 325 325 325 325 324 323 322 321 321 321 321 321 321 320 320 320 320 320 319 318 318 317 317 316 315 315 314 314
316 319 320 320 319 319 320 318 318 318 320 321 320 322 323 320 317 316 318 318 319 320 322 324 325 329 330 331 333 335 334 334 337 337 337 336 333 332 332 332 330 330 331 332 331 331 331 329 329 330 330 330 330 330 328 328 328 327 326 326 326 326 326 326 325 325 325 325 325 325 325 325 324 323 322 321 320 321 321 321 321 320 319 319 319 319 319 319 318 317 317 316 316 315 314 314 313
317 319 320 318 319 319 318 318 317 318 319 319 320 321 321 318 315 316 318 317 318 319 321 320 320 327 330 330 331 335 334 334 335 335 336 336 334 332 332 331 329 329 331 332 331 331 331 328 328 330 330 330 330 330 329 329 328 327 327 326 326 326 326 326 325 324 324 325 325 325 325 324 323 322 321 320 320 320 320 320 320 319 319 318 319 319 319 319 318 317 316 316 315 314 313 313 313
316 317 319 317 318 317 316 316 317 317 318 318 319 319 318 315 313 316 316 317 317 316 320 317 318 326 328 328 331 335 334 333 334 335 336 335 334 332 332 331 329 329 329 331 331 332 330 328 328 329 330 330 330 330 329 329 328 327 327 326 326 326 325 326 325 324 324 324 325 325 324 323 322 321 320 320 320 319 320 319 319 319 319 318 318 318 319 318 317 316 316 315 315 314 313 312 312
314 316 317 316 315 313 313 313 314 315 316 316 316 316 315 312 312 315 315 316 315 315 318 315 319 325 324 327 330 333 334 333 334 335 335 335 334 332 332 331 329 328 329 330 331 331 329 327 328 329 330 330 330 329 329 329 328 327 327 326 326 325 325 325 325 324 324 324 324 324 323 322 321 320 320 320 319 319 319 319 319 318 318 318 317 317 318 317 316 316 315 315 314 313 312 311 310
313 314 315 314 312 310 310 309 311 312 313 313 313 313 312 310 312 314 314 316 314 314 315 313 317 320 320 327 329 332 332 331 334 334 334 334 334 333 332 332 329 328 329 330 330 330 327 328 329 329 330 330 329 328 328 328 327 327 327 326 326 325 325 325 325 324 324 324 324 323 322 321 320 320 319 319 319 319 319 318 318 318 318 317 317 317 317 316 316 315 315 314 314 312 311 310 309
311 313 313 312 311 310 310 310 310 311 312 311 312 313 310 309 312 313 313 314 313 312 315 312 311 314 320 328 328 333 331 327 332 334 334 334 333 333 332 331 330 328 330 330 329 328 326 328 329 329 330 330 328 327 327 327 326 326 327 326 326 325 324 324 324 324 324 324 323 323 322 320 320 319 319 318 318 318 318 318 318 317 317 316 316 316 316 316 315 315 314 314 313 311 311 310 309
311 313 312 311 312 312 312 312 311 311 311 311 312 312 309 309 311 312 311 312 310 311 315 310 308 313 321 327 329 332 326 324 330 332 333 334 333 333 332 331 330 329 330 330 329 327 327 329 329 329 330 329 328 327 327 326 326 326 326 326 325 325 324 324 324 324 324 324 323 322 321 320 319 319 318 318 318 317 317 317 317 317 316 316 316 316 316 315 315 315 313 313 312 311 310 309 309
312 313 311 310 311 312 311 311 311 311 310 311 311 310 308 308 310 310 309 310 310 310 312 308 309 316 321 323 327 327 320 322 328 331 332 333 333 333 332 331 331 329 329 330 329 328 328 329 328 329 329 329 328 327 327 326 326 326 326 326 325 324 324 324 324 324 324 323 322 322 321 319 319 318 317 317 317 317 317 317 316 316 316 315 315 315 315 315 314 314 313 312 311 310 309 308 308
311 311 310 310 311 311 311 311 311 310 310 311 311 309 307 307 309 309 308 308 309 308 308 309 311 316 319 316 319 320 317 323 329 330 331 333 332 332 332 331 331 330 330 330 330 329 329 329 328 328 329 328 328 327 326 325 326 326 325 326 325 324 324 323 323 323 323 323 322 321 320 319 318 317 317 316 316 316 316 316 316 315 315 315 315 315 315 315 314 313 312 311 310 309 308 308 307
310 311 310 310 311 311 311 310 311 311 311 311 310 308 307 308 307 306 307 306 308 308 307 309 310 313 313 311 317 318 315 323 329 329 330 332 332 332 332 331 331 330 330 330 330 330 329 329 327 328 329 328 328 327 326 325 325 326 325 325 324 324 323 322 322 322 322 322 321 320 319 318 317 316 316 316 315 315 315 315 315 315 315 314 315 314 314 314 313 312 311 310 309 308 308 307 304
308 311 311 310 311 310 310 309 310 311 310 310 310 308 307 308 307 305 306 306 307 309 308 308 308 310 309 311 319 316 313 319 324 329 330 331 332 331 331 331 331 330 330 330 330 330 329 329 327 328 329 328 328 327 326 325 324 325 325 325 324 323 323 322 322 322 321 321 321 320 319 318 317 316 315 315 315 314 315 314 314 314 314 314 314 314 313 313 312 311 310 308 308 307 306 303 299
308 310 310 310 310 309 309 309 309 309 308 308 308 308 308 309 308 306 307 308 308 309 309 308 308 309 308 311 315 312 312 314 315 324 330 331 331 330 331 330 330 330 330 330 329 330 329 329 328 328 329 328 327 326 326 325 324 324 324 324 323 323 322 322 322 321 321 320 320 320 319 318 317 316 315 315 314 314 314 313 313 313 313 313 313 313 313 312 311 309 307 305 303 302 300 297 295
308 308 309 309 309 308 307 308 308 307 308 307 307 308 307 308 308 307 307 309 309 309 310 310 309 310 309 310 311 309 311 311 311 316 322 328 331 330 330 329 329 329 329 330 330 329 329 329 328 328 328 327 326 325 325 324 324 324 324 324 323 323 322 322 322 321 320 320 320 319 318 317 317 316 315 314 314 313 313 312 312 312 313 312 312 313 312 312 310 306 303 300 297 295 295 294 294
307 307 310 310 307 306 306 306 307 306 306 307 308 307 306 307 307 307 308 309 309 310 311 310 310 311 310 310 311 310 311 311 311 311 315 323 329 330 330 329 329 329 329 330 330 329 329 329 328 328 327 327 326 325 325 324 324 324 324 324 323 323 322 322 322 321 320 320 320 318 317 316 315 314 314 313 313 313 312 312 312 312 312 311 312 312 311 311 308 304 300 295 294 294 294 294 294
307 307 310 309 304 306 306 305 306 307 306 307 308 307 307 308 306 306 308 309 310 312 311 309 310 310 310 310 310 311 311 311 312 311 313 317 324 329 329 330 330 329 328 329 329 329 329 329 328 328 327 326 326 325 325 324 324 324 323 323 323 322 322 322 321 321 320 319 319 318 316 315 314 313 313 312 312 311 311 311 311 311 311 311 311 311 311 310 306 302 297 293 293 294 294 294 293
307 307 308 306 304 307 307 305 306 306 306 307 308 308 308 307 306 308 308 309 311 312 311 308 308 309 309 309 310 310 310 311 312 311 311 312 318 326 329 329 329 329 328 329 328 328 329 329 329 327 327 326 326 325 325 324 323 323 323 323 323 322 322 321 320 320 319 319 318 317 315 314 314 313 313 312 311 311 311 311 311 310 310 310 310 310 309 305 302 299 295 293 294 294 294 294 293
308 308 305 306 305 306 307 305 306 306 306 308 309 308 307 307 309 309 309 309 310 311 310 308 308 308 308 309 309 310 310 310 311 311 311 310 313 319 324 326 328 329 328 328 328 328 328 328 328 327 327 326 326 325 324 324 323 322 322 322 323 322 322 321 320 319 318 318 318 316 315 314 313 313 312 311 311 311 311 310 310 310 310 310 309 309 307 301 299 297 294 293 294 294 294 294 293
308 308 306 307 306 306 307 306 306 306 307 309 308 307 307 309 310 309 308 309 309 310 310 309 309 308 308 309 309 310 310 310 310 310 310 310 310 311 313 316 322 327 328 328 327 327 328 327 327 327 326 326 325 325 325 323 323 322 322 322 322 322 321 320 319 319 318 317 316 315 314 314 313 312 312 311 311 310 310 310 310 310 310 309 309 308 304 299 297 295 293 293 293 294 294 294 292
308 309 308 308 307 307 307 305 306 307 308 308 306 308 309 309 309 308 308 309 310 309 309 309 309 309 309 309 309 309 309 310 310 310 310 310 309 308 308 309 314 321 325 327 327 327 327 327 327 326 325 326 325 325 324 323 322 322 322 322 322 321 321 320 320 318 317 317 316 315 314 313 313 312 311 311 311 310 310 310 309 309 309 309 308 307 302 297 295 294 293 293 293 294 294 293 292
308 309 308 308 309 309 307 307 308 308 307 307 307 309 310 308 308 309 309 309 309 308 309 309 308 308 308 308 308 308 308 309 311 310 310 309 309 309 308 308 310 315 319 323 326 326 327 327 326 326 325 325 325 324 324 323 322 322 322 322 321 321 321 320 320 319 318 317 316 315 314 313 313 312 311 311 310 309 309 309 309 309 309 309 308 305 300 294 293 293 292 293 293 293 293 293 292
306 308 308 309 310 307 306 307 308 308 307 306 308 310 310 308 307 309 311 308 308 308 309 309 308 307 308 308 308 309 309 309 309 309 309 310 310 310 310 309 310 313 316 321 323 322 325 327 326 325 325 324 325 324 323 322 321 322 322 321 321 321 320 320 319 319 318 316 315 315 314 313 313 312 311 311 310 309 309 309 309 308 308 308 306 303 299 294 292 292 292 293 293 293 293 292 292
306 307 308 310 307 306 306 307 308 307 307 307 308 309 309 308 307 310 311 308 307 308 309 309 308 307 307 307 308 308 309 309 308 308 309 310 310 310 310 309 309 311 315 319 321 321 323 326 326 325 324 324 324 323 322 321 321 321 321 321 321 321 320 320 319 318 316 315 315 315 314 313 313 312 310 311 310 309 309 309 309 308 308 307 305 302 299 294 292 292 292 292 293 292 292 292 291
307 306 307 310 307 307 308 307 307 306 307 308 309 311 310 309 310 311 311 308 308 308 308 308 308 308 307 307 307 307 308 309 308 308 309 309 309 308 308 309 309 309 311 314 317 320 323 325 326 325 324 323 323 323 321 321 321 320 320 320 320 320 320 319 319 318 316 315 315 314 314 313 312 311 311 310 310 309 309 309 308 307 308 307 304 302 299 294 292 292 292 292 292 292 292 292 291
308 306 305 308 308 310 308 305 306 307 307 309 308 309 310 311 312 312 310 307 307 307 306 307 307 308 307 307 307 307 308 309 309 309 309 308 308 308 308 308 308 308 308 310 313 315 318 322 325 325 323 323 322 322 320 320 320 320 320 320 320 320 319 319 319 318 316 316 315 315 314 313 312 312 311 311 309 309 309 309 308 308 308 307 305 302 297 294 293 292 292 292 292 292 292 292 291
308 307 305 306 305 309 310 305 306 308 307 308 307 306 307 310 311 311 310 307 307 307 306 306 307 307 307 307 307 307 308 309 309 309 309 309 308 308 308 307 307 307 307 308 311 313 314 317 323 325 323 322 321 321 320 319 319 319 320 320 319 319 319 318 318 317 316 316 316 315 314 312 312 311 311 310 309 309 309 309 308 308 308 307 304 300 295 293 293 292 292 291 292 292 291 291 291
305 307 307 307 305 308 310 305 305 307 307 306 307 307 307 308 308 309 309 307 307 306 306 307 307 308 308 308 307 307 308 309 310 310 309 309 308 308 307 307 307 307 307 307 308 311 315 317 321 324 323 321 320 319 319 319 319 319 319 319 318 318 318 318 317 317 316 316 315 314 313 312 312 311 310 310 309 309 309 309 308 308 308 306 301 296 293 293 293 292 292 291 292 292 291 291 291
305 306 306 307 306 306 308 306 304 305 305 305 306 306 306 307 307 308 308 308 308 306 306 307 308 309 309 308 308 308 308 309 310 310 310 309 309 308 308 307 307 307 307 307 307 309 314 318 320 322 323 321 319 318 317 318 318 318 318 317 317 318 318 317 317 317 316 315 315 313 313 312 311 310 310 310 309 309 309 309 309 308 307 302 296 293 293 293 292 292 291 291 292 292 292 291 291
306 306 306 306 306 305 306 307 305 304 304 305 305 305 306 306 306 307 308 308 307 306 306 307 308 308 308 308 308 308 308 308 309 309 310 310 309 308 307 307 306 306 306 306 306 307 312 316 319 321 322 320 318 317 315 315 316 316 316 316 317 317 317 317 317 316 315 315 314 313 312 311 311 310 309 308 308 308 308 308 308 307 302 295 292 293 293 292 292 292 291 292 292 292 292 291 291
306 306 306 307 307 306 306 307 306 304 305 305 305 306 306 306 306 307 307 308 307 306 306 307 307 307 308 308 308 308 308 308 309 309 309 309 309 308 307 307 306 306 306 306 305 306 309 314 318 319 320 319 317 316 315 313 313 314 313 313 314 315 316 316 316 315 315 314 313 312 312 311 310 309 307 304 302 302 302 302 302 301 295 292 293 293 293 292 292 292 292 293 293 293 293 292 292
307 307 307 308 307 307 307 308 306 304 305 306 306 306 306 306 306 307 307 307 306 306 306 307 308 308 308 308 309 309 309 308 310 310 310 309 308 308 307 307 306 306 305 305 305 306 308 312 317 318 317 317 316 314 313 312 311 311 311 311 311 312 314 315 314 314 314 313 313 312 311 311 310 309 304 298 295 294 294 294 295 294 292 292 293 293 293 293 293 293 293 293 293 293 293 293 293
308 309 309 309 308 308 308 307 305 303 305 306 306 306 305 306 307 307 307 306 306 306 307 307 308 309 309 309 309 309 309 309 310 310 309 308 308 307 307 306 306 306 306 305 305 306 308 311 315 316 315 315 315 313 312 311 310 309 308 309 310 311 312 313 312 312 312 312 312 311 311 309 308 306 301 295 292 291 291 292 293 292 292 293 293 293 293 294 294 294 294 294 294 293 293 293 294
308 309 309 309 308 307 307 305 303 303 304 305 306 306 306 307 308 308 307 306 307 307 307 307 307 308 309 309 308 309 309 309 310 309 309 308 308 308 307 307 306 306 306 305 305 307 308 310 314 315 314 314 314 314 313 311 310 310 309 309 309 309 309 310 311 311 311 310 310 309 307 305 303 300 297 293 292 292 292 292 293 292 292 292 293 293 293 294 294 295 295 294 294 293 294 294 294
308 308 307 307 307 305 305 304 302 303 304 305 306 305 307 309 308 308 307 307 307 308 308 308 307 307 307 308 308 308 308 308 308 308 309 308 308 308 307 307 307 307 307 307 306 308 309 311 313 314 313 313 313 314 314 313 311 310 309 308 309 307 306 309 310 310 310 309 308 306 303 301 298 295 293 292 292 293 293 293 292 292 292 293 293 293 293 293 294 294 295 294 294 293 294 294 294
307 307 306 306 306 304 304 305 303 304 305 305 305 305 308 310 308 307 307 307 308 309 309 308 307 307 307 307 307 307 307 307 307 307 307 308 307 307 307 307 307 307 308 308 307 309 310 311 312 313 312 312 312 311 312 312 310 308 307 307 306 306 305 306 307 307 307 307 305 303 301 299 297 293 292 293 293 294 294 293 292 292 292 292 293 293 293 293 293 294 294 294 294 294 293 294 294
308 306 305 305 305 303 303 305 304 305 306 303 304 309 312 310 307 307 308 306 307 308 308 308 308 307 307 307 306 306 306 306 306 306 306 307 307 306 306 307 306 307 308 309 308 309 311 311 312 313 312 312 311 310 309 309 308 308 306 304 303 303 303 302 302 302 302 303 302 300 300 299 298 295 294 294 294 294 294 293 292 292 292 292 292 293 293 293 293 294 294 294 294 294 294 294 294
307 306 306 305 304 304 304 305 305 306 308 305 304 310 311 310 308 308 309 307 308 308 307 307 307 307 306 307 307 306 306 305 305 305 306 306 306 306 306 306 307 307 308 309 309 310 311 311 311 312 311 311 310 309 309 308 308 308 306 304 302 301 300 300 302 302 302 302 302 301 300 300 299 298 296 295 295 294 294 293 292 292 291 292 293 293 294 294 294 294 295 295 294 294 294 294 294
306 305 304 304 304 304 305 306 305 305 307 306 304 309 310 311 310 310 309 308 308 308 307 307 307 307 306 306 306 305 304 304 304 305 305 305 305 306 306 306 306 307 308 309 310 310 310 311 311 310 310 310 309 308 309 308 308 307 307 307 305 303 301 301 304 304 303 302 302 301 300 299 298 297 296 295 295 294 293 293 292 292 292 292 293 294 294 294 294 295 295 294 294 294 294 294 294
306 303 302 304 304 305 306 305 305 305 307 306 305 307 309 311 311 309 307 307 308 308 307 307 307 306 305 305 304 304 303 303 304 304 304 304 305 306 306 306 306 306 307 309 310 310 311 311 311 310 309 308 308 308 308 308 307 306 306 306 305 305 304 302 301 302 302 302 301 300 299 298 297 297 296 295 295 294 293 293 292 292 292 293 295 295 295 295 296 296 295 294 294 294 294 294 294
306 302 302 303 303 304 304 304 305 304 306 308 306 305 308 310 310 309 307 307 308 308 307 307 306 305 304 303 303 303 303 303 303 303 303 304 305 306 306 306 306 306 307 309 311 311 311 311 310 309 308 307 307 307 307 306 306 306 306 305 304 304 303 301 300 300 300 301 301 299 298 298 297 296 296 296 295 294 293 293 292 292 294 296 297 296 296 297 298 297 295 294 293 294 294 294 294
305 302 302 301 301 302 302 303 305 303 306 310 307 305 307 307 308 309 308 308 308 307 308 307 305 304 302 302 302 302 303 303 303 303 303 304 305 306 306 306 306 306 307 309 311 311 311 310 309 308 307 306 306 306 306 305 305 306 306 305 305 304 302 300 299 299 299 300 300 299 298 298 298 297 296 296 296 295 294 294 293 294 296 298 299 299 299 299 298 297 294 293 293 293 293 294 294
304 303 304 303 300 300 301 301 302 305 308 309 304 303 305 305 307 309 309 307 307 307 307 306 304 302 302 302 302 303 303 303 303 303 304 305 306 306 306 306 306 306 307 310 311 310 310 309 308 307 306 305 305 305 305 305 305 305 305 306 305 303 301 300 299 298 298 299 299 298 297 298 298 297 296 295 295 295 295 295 295 296 298 299 299 299 299 299 298 296 294 293 293 293 293 293 293
304 303 304 304 303 301 302 301 300 306 307 306 301 303 303 305 306 307 308 305 306 307 306 304 303 301 301 302 302 303 303 303 304 304 305 306 307 307 307 307 306 306 308 310 311 309 309 308 307 306 305 304 304 304 304 304 305 305 305 305 304 302 301 300 299 298 298 299 299 298 297 297 296 296 295 295 295 295 295 296 297 297 298 299 299 298 298 297 296 294 293 293 293 293 293 293 293
305 304 304 306 305 304 304 303 302 304 305 303 300 302 303 305 306 306 306 305 306 307 305 303 302 301 302 302 302 303 303 304 304 305 306 306 307 308 308 307 306 307 309 310 309 308 308 307 307 305 304 304 304 304 304 304 304 304 304 304 303 302 301 300 300 300 300 300 300 299 298 297 296 296 296 296 296 295 295 296 297 298 298 298 298 298 297 295 294 293 293 292 293 293 292 293 293
304 305 305 305 303 302 303 304 302 303 305 302 299 301 303 306 306 306 306 306 307 306 304 303 301 301 302 302 302 303 304 305 305 305 306 306 307 308 308 307 307 309 309 309 308 307 307 306 305 304 303 303 303 303 303 303 303 303 303 303 303 302 301 300 300 300 301 302 301 300 300 299 298 298 298 298 298 296 296 297 298 298 298 298 298 297 295 294 293 293 292 292 293 292 292 293 294
303 302 302 303 303 302 304 304 303 304 304 303 301 303 304 306 306 307 305 304 306 306 304 302 301 302 303 302 303 304 305 305 305 306 305 306 307 309 309 308 309 309 307 307 307 306 306 305 304 304 303 302 302 302 302 302 303 303 302 302 302 302 301 300 300 299 300 301 301 301 300 299 300 300 300 300 299 298 298 299 299 298 298 298 297 295 293 293 292 292 292 292 292 292 293 294 295
303 300 302 304 302 301 304 304 304 304 302 302 302 303 305 305 306 306 305 305 306 306 304 302 301 302 303 303 304 305 305 305 306 306 305 305 307 309 309 309 308 307 306 306 306 305 305 304 303 303 302 302 302 301 301 301 302 302 302 302 302 301 300 300 299 299 299 300 300 301 300 301 302 302 301 301 301 300 300 300 299 298 298 297 296 294 293 292 292 292 292 292 293 294 295 295 294
303 302 304 302 299 301 304 303 300 299 302 304 303 304 304 304 306 307 305 306 306 305 304 302 301 303 303 304 305 305 305 306 306 306 305 305 307 308 309 308 307 306 305 305 305 305 305 304 303 302 302 301 301 301 301 301 301 301 301 301 301 301 300 300 300 300 299 299 299 300 301 302 303 303 302 302 303 302 301 300 299 298 297 297 296 294 293 292 292 292 293 294 295 296 296 295 293
303 304 303 299 298 299 301 302 301 301 304 304 303 304 304 304 307 309 307 306 306 304 303 301 301 303 304 303 304 306 305 306 306 306 306 306 307 307 307 307 306 305 305 305 304 304 304 303 303 302 301 301 301 301 301 301 301 301 301 301 300 300 300 300 301 300 299 299 298 299 302 303 303 303 303 303 304 302 301 300 299 299 298 297 296 294 292 291 291 293 294 295 295 295 295 294 294
301 302 300 298 302 301 300 301 302 303 305 304 303 303 304 304 305 307 307 306 305 303 303 302 301 303 304 303 304 306 306 306 306 306 306 306 306 307 306 305 306 305 304 304 304 304 303 303 303 302 301 301 300 300 300 300 301 300 300 300 300 300 300 300 300 300 299 298 298 300 303 303 304 304 304 304 304 302 301 300 299 299 298 297 295 294 292 291 292 293 293 293 294 295 294 294 294
299 301 300 298 300 301 300 300 300 302 304 304 304 305 306 306 306 306 306 305 304 303 303 302 301 302 303 303 304 306 306 305 306 306 306 306 306 306 306 305 305 304 304 304 304 304 303 302 302 301 301 300 300 300 300 300 300 300 300 300 299 299 299 300 300 300 299 299 299 301 303 303 304 304 304 304 304 303 302 300 299 299 298 297 296 294 293 293 293 292 291 292 294 295 294 294 294
302 303 303 300 298 297 298 299 299 300 302 302 302 305 307 308 307 305 304 305 303 302 302 302 301 301 302 303 303 306 306 305 306 306 306 305 305 305 305 305 305 304 304 304 303 303 302 302 301 301 301 300 300 300 300 300 300 300 300 299 299 299 299 299 300 300 300 300 300 301 302 302 303 304 304 304 304 303 302 301 300 299 298 297 296 296 295 294 292 291 290 291 293 294 294 294 294
302 304 304 303 301 299 301 302 299 298 300 301 301 304 306 307 307 304 305 305 302 301 301 301 302 302 302 303 304 305 306 305 305 306 305 305 305 305 305 305 305 304 304 303 303 302 302 302 301 301 301 300 300 300 300 300 300 300 300 299 299 299 299 299 299 299 299 300 299 300 301 302 303 304 304 305 304 303 302 301 300 299 298 297 297 297 296 293 290 290 290 291 293 294 294 294 295
Wind_Speed
8 5 4 2 1 2 3 2 2 2 3 4 3 2 1 2 2 2 3 3 2 2 4 5 5 4 3 4 6 7 7 4 3 2 1 1 1 3 10 8 10 25 29 25 24 25 25 24 24 23 22 22 21 21 20 19 18 17 18 18 18 18 18 18 17 18 19 18 18 19 18 18 18 17 18 17 17 17 17 17 16 17 16 17 17 16 16 16 16 15 15 16 15 16 16 16 16
6 4 2 1 1 2 2 0 4 2 4 5 2 2 2 1 0 1 5 6 4 6 7 6 5 6 4 4 5 7 6 3 1 0 1 1 2 5 11 9 14 25 26 24 24 24 24 24 24 23 22 22 22 21 21 20 18 18 19 19 19 19 18 18 17 18 19 18 18 18 18 18 18 18 17 17 17 17 17 17 17 17 17 17 17 17 17 16 15 15 15 15 15 15 16 16 16
5 2 1 1 0 1 1 1 4 2 4 4 1 1 2 1 1 4 5 7 7 9 8 5 5 5 5 6 5 5 4 2 1 1 1 2 3 6 13 11 17 24 24 24 23 24 23 24 25 24 23 22 23 22 21 21 20 19 19 20 20 19 19 18 18 18 18 18 19 18 19 19 18 18 17 17 17 16 16 16 17 17 17 16 16 17 16 16 15 15 15 15 15 15 15 16 16
4 2 1 3 2 1 2 2 3 3 4 3 1 3 2 1 3 4 5 8 9 8 5 4 3 1 5 7 3 3 5 2 1 2 1 4 5 7 15 15 19 24 24 23 22 23 22 25 27 24 23 23 23 22 22 22 21 20 19 19 19 19 19 19 18 18 19 19 19 18 19 19 18 18 18 18 17 16 16 16 16 17 16 16 16 17 16 16 15 15 15 15 15 15 15 16 16
3 3 2 4 2 1 1 2 1 3 3 2 2 3 3 2 4 6 6 8 8 5 4 4 3 1 3 5 2 3 3 1 1 0 1 2 5 8 17 20 23 25 24 23 22 22 22 26 27 25 25 24 23 22 23 23 22 21 20 19 19 20 19 19 19 19 19 19 19 18 18 19 18 18 19 18 17 17 16 16 16 17 17 16 17 17 16 16 15 15 15 15 15 15 15 16 16
2 2 2 1 0 1 2 2 2 4 1 2 4 2 2 3 5 7 8 7 4 4 4 3 4 4 4 3 4 2 3 2 2 1 2 2 4 10 18 23 28 28 25 24 22 21 22 28 27 25 25 24 23 23 23 23 23 22 21 21 20 20 19 19 19 19 19 19 19 19 18 18 18 19 18 18 17 17 17 17 17 17 17 17 17 17 17 15 15 15 15 15 15 15 15 15 15
2 1 2 2 2 1 3 3 3 3 1 1 4 3 4 5 6 8 8 6 3 4 5 4 5 6 5 1 4 0 4 3 3 3 4 4 4 12 19 24 32 32 26 23 22 21 23 29 26 25 25 23 23 22 23 22 22 22 22 22 20 20 20 19 19 19 19 19 19 19 18 18 18 18 17 17 18 18 17 17 17 17 16 16 16 16 16 15 15 15 15 15 15 15 15 15 15
4 1 0 2 2 1 3 2 3 2 0 1 4 4 5 6 6 7 7 5 3 4 4 6 6 5 3 1 4 2 4 5 5 6 5 4 6 14 20 25 35 36 29 24 21 21 24 29 27 26 25 23 22 21 22 21 22 22 22 22 21 21 20 20 20 19 18 19 19 19 19 18 18 18 17 18 18 18 17 17 17 17 16 16 16 16 15 15 16 15 15 15 15 15 15 15 15
3 2 1 2 2 1 2 2 2 2 3 3 4 3 3 5 5 5 6 4 3 5 4 7 6 5 4 5 5 3 4 9 8 6 3 4 9 15 18 23 34 38 33 27 23 23 27 29 27 27 25 23 23 22 22 21 23 23 22 22 21 21 20 20 20 19 19 19 19 19 19 18 18 18 18 18 17 17 17 17 17 17 16 15 15 16 16 15 15 15 15 15 15 15 15 15 14
1 2 1 2 1 2 2 2 1 1 2 2 4 4 3 4 5 4 5 5 3 4 4 6 4 3 7 7 5 2 5 12 9 6 3 4 9 15 16 20 32 37 35 31 28 26 29 29 28 27 25 23 23 23 22 22 23 23 22 22 21 21 20 20 20 20 19 19 19 19 19 18 18 18 18 18 17 17 17 18 17 17 16 15 15 15 15 15 15 14 14 15 15 15 15 15 14
1 1 1 2 2 2 1 2 1 1 2 3 5 1 2 3 5 5 4 5 3 4 4 5 2 3 7 6 2 2 6 12 11 8 4 3 8 14 15 18 28 35 33 32 32 29 29 29 28 27 25 24 24 24 23 23 22 22 22 22 22 22 21 20 20 20 20 20 19 19 19 18 18 18 18 18 18 17 17 17 17 17 16 16 15 15 15 14 15 14 14 15 15 15 15 15 14
1 1 2 3 2 1 1 2 3 3 3 4 2 3 2 3 4 4 5 6 5 7 3 4 5 4 6 4 0 2 6 14 12 10 6 4 8 12 14 16 24 30 29 30 32 30 29 30 29 27 26 25 25 24 23 23 23 22 22 21 21 22 22 21 20 20 20 20 20 19 20 19 19 19 18 18 18 17 17 17 17 17 16 16 16 16 15 14 14 14 14 14 14 14 14 14 14
2 1 3 2 1 2 1 3 2 4 3 0 1 3 4 4 3 3 5 6 6 7 1 5 7 5 6 4 1 2 6 15 13 9 6 4 8 11 14 15 20 27 27 28 30 29 29 30 29 27 27 25 25 25 23 24 23 23 22 21 22 22 21 21 20 20 20 21 20 20 20 20 19 19 18 18 18 17 17 17 17 17 16 16 16 16 15 14 14 14 14 14 14 14 14 14 14
2 1 3 1 0 2 1 3 2 3 2 4 2 4 4 4 3 2 4 8 7 4 4 7 6 5 5 4 1 1 8 16 13 9 6 4 7 10 13 14 18 24 26 28 30 29 29 30 30 28 28 26 25 25 24 24 24 24 23 22 22 22 22 21 20 20 20 21 21 20 20 20 20 20 18 18 18 17 17 17 17 17 16 16 16 16 15 15 14 14 14 14 13 13 13 13 13
2 0 2 1 1 1 2 2 2 3 1 4 2 3 6 3 1 3 4 7 6 2 6 6 3 4 3 4 3 4 11 16 13 8 6 4 8 9 13 14 17 21 23 26 28 30 30 31 31 29 29 27 26 26 26 25 24 24 24 23 23 22 22 21 20 20 21 22 22 21 20 21 21 21 19 18 18 17 17 17 17 17 16 16 16 16 15 14 14 14 14 13 13 13 13 13 12
2 1 2 2 1 1 1 1 1 2 1 3 1 3 7 2 2 4 3 3 8 5 4 4 3 4 6 6 5 7 12 14 12 8 6 5 8 10 12 13 16 20 21 23 26 30 31 31 32 30 27 27 26 25 25 26 24 23 23 24 23 23 23 22 20 20 21 22 22 21 21 22 21 22 19 17 18 17 17 16 16 17 16 16 16 15 15 14 14 13 13 13 13 14 14 13 12
1 2 3 2 1 1 0 1 1 2 3 2 1 2 7 5 2 2 3 5 10 8 5 7 6 6 9 8 5 8 11 11 11 7 5 5 7 9 13 14 17 20 21 23 25 28 31 31 32 30 27 27 27 24 23 25 25 23 23 24 23 23 23 22 20 21 22 21 22 21 21 22 20 21 19 18 18 18 17 17 17 17 16 16 16 15 15 14 14 14 14 14 14 14 13 13 12
2 2 2 2 1 1 1 1 1 2 5 5 3 2 5 9 5 3 6 7 8 9 9 9 8 8 9 7 5 9 11 11 10 8 7 5 6 9 11 12 17 20 19 22 24 26 29 31 32 30 28 29 28 25 23 24 26 25 23 24 24 23 23 23 23 23 23 22 23 22 21 21 19 19 20 20 19 18 17 17 17 16 16 16 16 15 15 15 15 14 13 13 13 11 11 11 11
1 1 3 2 1 1 0 2 2 3 6 8 7 4 4 7 6 5 7 9 8 11 10 6 6 5 5 5 5 9 12 11 10 9 9 7 7 10 10 11 14 17 18 20 24 26 27 28 31 31 30 30 29 27 27 26 27 26 24 24 24 24 24 25 25 25 25 24 25 24 21 22 22 20 21 21 19 19 18 18 17 17 17 17 16 15 16 17 14 12 11 10 10 9 9 9 9
0 1 4 1 2 2 2 4 4 5 7 9 9 4 4 6 5 4 6 12 12 11 8 3 5 5 3 4 7 10 11 11 10 9 9 9 10 11 12 13 14 17 21 22 23 26 25 24 29 32 31 30 30 30 30 29 28 27 25 26 26 26 26 26 26 26 26 25 25 25 24 24 24 22 21 22 20 20 19 18 18 19 19 19 19 18 17 16 13 10 10 10 10 10 9 8 8
1 1 3 3 2 2 1 3 3 4 4 7 8 6 8 6 2 5 5 10 11 6 3 3 7 9 9 9 10 11 11 12 10 8 8 9 10 12 13 13 15 17 22 23 21 23 25 24 28 32 32 33 32 31 31 31 31 29 27 28 28 28 27 27 27 27 27 26 25 25 25 24 24 23 22 23 21 19 20 19 18 20 20 20 20 19 17 14 11 11 11 11 11 10 9 8 8
1 1 2 2 0 2 1 1 1 3 4 6 7 7 8 5 4 7 7 8 9 4 2 3 8 9 11 11 11 10 10 11 10 9 9 9 10 11 13 13 15 17 18 20 19 23 27 28 31 35 35 34 34 34 33 33 32 31 30 29 29 29 28 28 27 27 27 26 25 25 25 23 22 23 23 23 22 20 21 20 19 20 20 20 20 18 16 11 10 12 12 11 10 9 8 8 8
2 1 0 1 2 4 2 1 1 3 7 8 5 5 6 8 9 6 8 13 12 9 7 8 11 11 11 10 10 9 7 9 10 11 10 9 10 11 11 11 13 15 17 18 18 22 28 29 33 37 38 37 37 36 35 35 34 32 32 31 30 30 29 29 29 28 26 25 25 25 24 22 22 23 23 22 22 22 22 21 20 20 20 20 20 18 14 9 10 12 11 11 9 8 8 8 8
3 1 1 2 3 6 5 3 5 5 10 8 3 4 6 10 8 2 8 14 13 13 10 10 11 10 8 8 8 8 7 8 10 12 11 10 10 11 12 11 10 11 14 16 17 23 28 29 31 34 36 37 38 38 38 37 35 34 34 33 32 31 29 30 30 29 26 25 25 25 23 22 22 23 22 21 22 22 21 21 20 20 20 19 19 16 10 8 10 11 11 10 9 8 8 8 8
2 1 0 1 2 6 6 6 8 8 8 5 2 6 8 9 7 6 12 13 7 8 7 5 7 7 6 7 8 9 9 9 10 11 10 10 9 10 12 13 13 11 11 12 15 22 28 28 28 31 33 35 38 39 39 40 39 37 36 35 34 32 30 30 30 28 27 27 26 24 22 22 24 24 21 21 23 22 20 20 19 19 19 18 17 14 9 8 10 11 11 11 9 9 8 8 8
1 3 3 5 6 6 6 7 7 6 5 1 2 7 8 5 4 8 11 7 3 4 5 3 4 7 8 8 8 8 8 10 10 9 9 10 9 9 11 11 13 13 12 12 13 20 26 28 27 32 34 35 39 39 40 41 40 39 38 36 35 34 32 31 30 29 27 28 26 23 21 23 26 24 21 22 23 22 21 20 19 18 19 18 16 13 9 9 10 11 11 11 10 9 9 8 8
1 4 7 9 8 6 5 5 5 6 5 3 4 9 9 2 2 5 4 2 3 5 6 4 5 9 9 8 8 7 7 9 9 7 9 10 8 8 8 8 10 13 13 12 14 17 22 27 29 33 35 36 39 39 40 40 38 39 39 36 36 35 33 32 31 30 29 28 25 23 24 25 27 24 22 23 24 23 22 21 20 18 18 17 15 12 9 9 10 11 11 11 10 10 9 9 8
1 4 7 7 5 4 4 5 5 5 3 2 6 11 8 3 4 6 3 2 3 6 8 8 8 9 9 8 6 6 6 6 6 6 8 9 8 7 7 7 8 10 11 11 12 14 19 25 29 33 35 36 39 39 39 40 39 40 39 36 34 33 32 31 31 31 30 27 24 24 26 26 26 23 23 25 25 23 23 23 21 18 17 16 15 12 10 9 10 11 11 11 10 10 9 9 9
1 1 5 4 2 4 4 3 3 3 2 3 8 8 3 5 7 6 4 1 4 7 11 11 9 8 7 7 5 5 5 5 4 5 6 8 8 8 10 10 9 10 10 10 11 12 16 22 27 33 36 38 40 41 39 41 42 41 39 37 34 34 33 31 31 31 30 27 24 24 26 25 23 23 24 25 23 22 23 23 20 18 18 16 14 12 10 10 11 11 11 11 10 10 9 9 9
2 1 2 3 3 4 5 2 4 4 2 6 8 6 2 6 9 6 3 2 6 10 13 11 8 6 6 6 5 5 5 5 4 4 5 6 8 8 11 13 12 12 13 11 12 13 16 19 24 31 35 38 41 42 41 41 42 42 41 39 37 37 36 33 32 31 29 27 25 25 26 24 23 23 24 24 22 22 23 22 20 19 18 16 14 12 11 11 12 12 13 12 12 10 9 9 9
2 1 1 1 3 1 5 0 4 3 1 5 6 5 6 5 6 4 3 2 7 13 14 10 8 6 5 5 5 6 6 6 6 7 7 7 8 8 10 13 14 14 15 15 14 15 16 19 22 28 33 37 40 41 41 41 41 43 43 41 40 38 36 34 33 32 30 28 27 26 26 24 23 23 22 22 22 22 23 22 20 19 17 15 14 13 12 13 13 13 14 14 13 11 10 9 9
1 2 1 0 3 3 2 2 2 3 2 4 4 5 8 9 7 2 3 3 8 13 13 10 8 7 6 5 5 6 7 8 9 9 10 9 9 9 10 13 14 14 16 18 17 16 17 18 21 27 33 35 36 38 41 42 42 44 44 43 41 39 37 35 34 32 31 29 28 27 26 24 23 22 21 21 22 23 23 22 21 19 17 16 15 14 14 14 14 14 14 13 12 11 10 10 9
1 1 4 3 4 7 4 3 3 2 4 4 3 5 9 9 8 7 5 7 9 11 12 10 9 7 6 6 5 6 7 8 9 10 11 10 9 9 11 13 15 15 15 19 19 17 17 18 20 26 32 36 35 34 36 40 42 44 44 42 41 39 37 35 34 32 31 30 29 28 26 24 23 21 20 20 21 22 23 22 21 19 17 17 16 15 14 15 15 15 14 13 11 10 10 11 10
0 0 2 3 4 6 6 1 3 2 4 5 5 7 13 14 13 15 12 8 8 9 10 10 9 8 7 6 6 7 8 8 9 11 11 10 10 10 12 15 16 16 16 18 20 19 17 19 21 25 31 36 36 34 33 35 39 41 41 40 40 39 38 36 34 33 32 31 30 28 26 24 23 21 20 20 19 21 21 21 21 19 18 17 17 16 15 15 15 15 15 13 11 9 10 11 11
3 3 3 4 5 6 8 5 2 4 6 7 8 10 15 18 15 14 12 7 7 8 8 8 9 9 9 7 8 8 9 10 11 12 10 10 11 12 13 15 17 16 16 18 20 20 18 19 20 22 30 35 36 36 34 34 37 39 38 37 37 37 37 36 35 34 33 31 30 27 26 24 22 21 20 19 19 19 20 20 20 20 19 18 18 17 17 17 16 15 14 13 12 10 9 10 10
3 3 3 5 6 6 10 8 3 6 9 9 10 11 14 18 16 15 13 7 6 8 8 7 8 9 9 8 9 9 10 12 12 11 10 10 12 13 14 15 17 16 16 17 18 19 19 21 20 20 29 36 36 36 35 35 35 36 37 37 37 36 37 37 36 35 33 31 29 27 25 24 22 20 19 19 18 18 19 19 19 19 19 19 19 19 19 18 17 16 15 14 13 11 10 10 9
2 3 4 6 7 8 9 6 1 4 8 8 8 12 16 17 16 15 12 7 7 9 9 8 9 9 9 9 10 11 12 11 10 10 11 12 13 13 14 14 16 16 14 16 17 19 19 22 23 23 30 37 39 38 37 37 36 36 36 37 38 37 38 38 36 35 33 31 29 27 25 23 22 21 19 19 18 18 18 19 19 19 19 19 19 19 18 18 17 16 15 14 13 11 11 11 10
2 4 5 5 5 7 7 3 0 3 6 8 8 13 16 15 14 13 8 6 8 9 9 10 11 10 9 10 12 12 11 9 9 11 12 13 13 11 12 13 15 15 13 13 16 18 19 23 25 25 31 38 41 42 40 39 39 40 39 39 39 38 37 39 38 36 34 31 28 26 24 22 22 21 21 19 18 18 19 19 19 19 19 19 18 18 17 16 17 17 16 15 13 12 12 12 12
3 3 4 5 2 4 5 2 1 1 4 8 11 13 15 14 12 10 6 6 7 6 7 9 10 10 10 11 11 12 12 11 11 12 13 14 14 13 12 12 13 14 13 12 15 17 19 24 26 24 29 36 38 42 45 42 41 39 38 39 40 37 35 36 37 35 33 30 27 24 23 23 23 23 22 20 18 17 18 18 19 19 20 20 19 18 17 16 17 17 15 15 14 13 12 12 13
4 4 4 5 3 3 3 2 3 7 6 8 11 12 12 9 6 7 5 4 5 6 7 9 9 10 11 12 11 12 13 14 14 14 14 14 16 16 14 12 12 13 13 12 13 18 19 23 28 24 26 32 31 34 42 43 41 37 35 36 37 36 34 34 34 33 31 29 26 25 24 25 24 24 23 21 19 18 17 18 19 20 20 20 19 19 18 18 18 17 16 14 14 14 13 12 15
4 5 5 5 4 3 4 4 9 11 5 4 10 9 6 2 2 5 3 2 4 7 7 10 9 8 9 10 11 12 13 15 16 17 15 14 17 18 17 14 13 13 13 12 13 18 19 22 29 26 26 28 23 26 36 39 40 38 35 33 31 31 31 31 32 31 30 30 28 27 26 26 26 25 24 23 21 19 18 18 19 20 20 20 19 18 18 18 17 16 15 14 14 14 13 13 15
2 4 5 4 5 5 6 7 10 8 3 1 5 6 2 1 3 7 4 2 6 6 6 9 8 7 9 11 14 15 15 16 17 18 18 17 19 20 18 16 14 13 13 13 14 17 19 23 28 29 28 25 21 28 36 39 42 42 41 38 33 33 32 32 35 35 35 33 31 29 28 27 27 27 25 24 23 21 20 19 19 20 21 21 20 18 17 16 15 15 13 13 15 15 13 13 14
3 1 2 2 3 5 7 6 5 5 4 2 2 5 5 4 5 5 3 4 7 7 6 7 7 9 12 14 15 15 16 18 18 18 18 18 19 19 18 17 14 13 13 12 14 17 20 23 28 31 29 23 24 33 37 40 43 44 46 46 42 41 39 38 39 40 38 35 33 31 30 29 28 28 26 25 24 23 22 21 19 19 20 20 19 17 17 15 14 13 12 12 14 15 14 12 13
2 2 0 1 3 6 6 3 2 3 5 3 1 2 5 6 5 1 1 6 9 9 8 7 9 13 15 16 15 15 18 19 17 17 17 17 17 17 18 18 15 12 12 12 15 17 20 23 26 28 25 21 27 37 38 40 43 44 46 46 44 44 42 39 38 39 38 35 34 32 31 30 28 28 27 26 25 24 23 23 21 21 20 19 18 17 17 15 14 13 12 13 13 14 15 13 11
1 3 1 2 2 4 2 2 2 2 4 2 2 2 4 7 6 2 2 5 8 7 7 8 11 14 15 16 15 17 20 18 16 16 16 16 17 18 19 18 15 12 12 12 16 18 20 21 22 23 20 19 29 39 38 34 35 39 40 38 39 38 35 36 37 36 36 36 35 33 32 32 29 28 27 27 26 25 24 24 24 24 22 20 18 18 17 16 15 13 13 14 14 15 15 13 12
1 3 2 3 2 1 1 0 1 1 3 1 3 2 4 6 8 4 1 3 6 6 6 8 11 13 13 14 15 17 17 15 14 15 14 15 17 19 19 17 15 12 11 13 16 18 19 18 19 21 18 18 27 34 33 30 30 31 30 30 33 31 30 35 36 34 35 36 35 34 33 32 31 29 27 27 26 25 25 24 24 24 22 20 19 18 19 18 17 15 13 13 14 14 14 15 14
3 3 3 3 3 2 2 1 1 2 3 2 4 3 4 5 6 3 1 2 4 6 7 9 13 15 15 13 14 15 15 13 14 14 14 15 18 19 17 16 15 12 11 14 18 18 17 18 18 19 16 17 22 24 24 28 31 29 27 30 33 32 33 36 34 33 35 36 36 35 33 33 32 30 29 27 27 26 25 24 23 22 20 19 18 18 19 18 17 15 13 11 13 13 13 14 15
3 3 4 3 2 2 2 2 1 3 2 3 2 2 1 4 4 4 3 1 1 4 7 10 14 15 16 14 13 15 14 13 13 13 13 14 15 15 14 14 12 11 11 16 21 21 20 21 21 20 17 18 21 20 20 26 29 26 27 32 33 34 38 38 36 36 38 38 37 36 34 33 32 31 30 29 28 27 26 24 23 22 21 20 19 19 19 18 16 13 12 12 13 13 13 14 14
3 3 3 4 2 1 1 0 2 3 1 3 1 2 3 7 7 9 10 3 1 3 5 8 12 13 14 14 14 14 12 13 13 12 12 12 11 11 11 10 9 10 12 18 22 23 23 23 25 24 21 21 22 20 20 23 24 23 27 31 33 35 39 39 40 41 41 40 39 38 37 35 34 33 32 31 29 28 26 25 24 23 22 21 21 20 19 17 15 13 12 13 13 13 14 14 13
2 2 3 3 3 4 4 2 2 3 1 3 3 1 4 6 6 6 7 3 2 4 6 6 9 11 13 13 14 13 12 13 12 11 12 11 10 10 8 5 6 10 14 20 21 21 22 22 24 24 21 21 23 23 22 22 22 21 26 32 34 35 37 38 39 41 41 41 41 41 40 38 37 36 34 31 30 28 27 26 25 24 23 22 22 21 19 17 15 13 13 13 13 13 13 12 12
1 1 3 1 1 2 4 3 3 5 5 1 3 2 3 4 3 1 1 3 5 6 5 6 8 10 11 11 12 12 12 12 12 11 12 11 11 9 3 1 7 12 15 19 20 19 20 20 21 22 22 21 23 26 25 24 22 20 24 32 34 35 37 37 35 35 37 39 40 40 39 38 36 34 31 30 29 28 27 26 25 24 23 23 23 21 19 17 15 14 13 13 13 13 13 12 12
1 1 2 1 1 2 2 2 2 2 5 3 2 3 3 4 7 5 1 4 6 6 5 6 8 9 10 10 11 11 11 12 12 12 11 11 11 7 5 7 10 14 16 18 19 19 18 18 19 21 22 22 22 23 23 24 22 19 22 31 33 33 34 33 32 32 34 37 38 38 37 34 32 31 30 29 28 26 26 25 24 24 23 23 23 21 19 18 15 13 14 14 13 13 13 12 12
2 1 1 1 1 2 1 1 2 3 2 3 1 4 5 5 7 3 3 4 6 6 6 7 7 9 10 10 10 11 12 12 12 11 11 10 10 9 9 10 12 13 14 17 19 20 20 19 19 19 19 21 21 21 21 22 23 21 24 30 32 32 33 33 33 33 33 34 35 35 33 31 30 30 29 28 26 25 25 25 24 23 23 23 23 22 20 17 14 13 13 13 13 13 13 12 12
1 1 3 3 1 1 0 2 1 2 4 2 1 5 6 4 2 2 3 5 8 9 8 7 8 10 10 10 11 12 12 12 12 11 10 9 10 11 12 12 13 12 12 15 17 18 20 20 21 20 19 19 19 20 20 20 23 24 25 29 30 31 31 31 32 32 32 32 32 31 31 31 30 29 28 27 25 25 24 24 24 23 23 24 24 22 20 17 15 14 14 14 13 13 13 13 13
2 1 4 2 1 1 1 2 2 3 5 4 2 4 5 4 3 3 4 6 10 11 9 7 8 10 10 10 10 12 12 11 10 10 9 8 9 10 12 13 14 14 14 15 15 15 16 17 18 19 19 18 17 19 20 19 21 23 24 26 28 28 28 28 29 29 30 30 31 31 31 31 30 28 28 26 25 24 24 24 24 23 24 25 25 23 20 17 16 15 14 14 14 14 14 14 13
2 1 2 0 2 1 0 1 1 2 5 6 3 3 3 4 3 4 5 5 8 10 8 6 7 7 8 9 9 9 10 10 9 9 9 8 9 9 11 13 14 14 15 15 14 14 14 14 15 17 18 18 17 20 20 17 17 20 22 23 24 25 25 26 27 27 28 29 30 31 31 30 29 29 28 26 24 23 23 24 24 24 24 25 25 23 21 18 17 16 15 15 15 15 15 14 14
3 3 3 2 1 0 1 0 1 2 3 3 3 5 6 3 2 4 5 3 5 8 7 5 4 5 6 8 8 7 7 8 8 9 9 8 8 9 10 12 13 13 13 13 12 12 13 14 14 16 17 17 17 18 18 15 16 20 21 21 22 23 23 24 25 26 26 27 28 29 30 29 29 28 27 25 23 22 23 23 23 24 24 24 24 24 22 20 18 17 16 16 16 16 15 15 14
1 3 4 4 3 2 2 2 0 1 2 2 2 6 9 4 1 3 3 1 3 6 6 4 2 3 6 7 8 7 6 6 7 7 7 7 7 8 8 9 10 12 12 12 11 11 13 13 13 14 15 16 16 17 15 14 15 18 19 21 22 22 22 23 24 24 25 26 27 29 29 28 28 27 26 24 22 21 22 22 23 24 24 24 24 24 24 22 19 18 18 18 17 17 16 16 15
Wind_Direction
330 314 313 340 29 236 210 196 224 184 245 262 252 251 110 64 11 276 329 353 278 40 5 315 274 246 242 267 248 257 281 247 196 198 260 58 177 140 172 189 168 166 164 164 168 168 167 168 168 167 167 166 164 163 160 158 159 160 158 155 155 155 153 155 155 150 148 147 146 144 145 142 140 139 136 135 133 132 131 130 130 128 127 126 126 124 118 114 109 107 106 102 102 100 101 101 98
336 311 328 43 24 259 187 232 258 187 227 257 240 231 48 63 271 29 10 1 328 331 325 310 271 239 255 295 279 270 265 253 295 147 6 65 134 148 168 179 171 167 164 165 167 169 169 170 169 168 168 168 167 165 164 164 163 164 160 157 157 157 156 155 153 151 149 148 148 147 147 143 141 140 138 136 134 133 132 132 132 129 128 126 124 123 119 114 111 109 107 104 104 103 102 102 100
340 315 347 355 341 293 154 209 254 222 233 261 225 122 34 248 66 37 4 334 318 318 310 297 266 244 243 249 258 259 262 298 270 161 70 167 173 175 173 172 174 170 166 167 168 171 171 172 171 169 169 168 168 165 165 166 166 166 161 158 159 158 158 156 155 154 151 151 150 150 149 144 143 141 139 137 135 134 135 135 132 129 129 127 121 120 121 118 115 112 109 107 105 104 104 104 102
349 354 295 277 215 205 202 216 261 256 251 270 315 95 103 116 25 354 343 322 313 312 305 289 263 209 245 259 274 263 269 288 211 184 154 195 210 190 174 168 172 173 170 170 171 174 174 174 172 169 169 168 168 165 164 166 165 164 160 158 161 160 158 156 157 155 152 152 151 151 150 145 145 143 141 139 136 136 138 137 132 130 131 129 125 123 125 121 117 114 112 110 106 104 106 106 104
20 36 333 281 234 202 221 232 244 247 266 317 306 101 109 35 349 328 331 315 312 320 314 288 280 102 246 276 282 266 280 298 39 226 295 226 215 195 176 167 168 174 174 172 174 176 175 175 174 171 168 168 169 166 167 168 166 164 161 161 163 161 159 158 157 155 152 153 152 151 149 146 146 143 141 139 138 139 138 137 133 132 133 131 129 127 125 120 117 115 114 111 107 105 108 108 105
54 61 45 16 341 338 238 236 219 235 308 348 296 71 75 354 342 325 327 317 323 357 356 314 311 309 259 257 231 268 7 338 351 353 323 305 215 194 178 169 171 174 174 175 177 176 176 176 176 172 167 169 169 167 170 170 167 166 165 165 165 163 162 160 158 157 154 156 154 151 152 147 145 143 141 141 141 142 140 138 137 136 134 132 130 128 124 120 119 117 115 112 107 106 109 109 107
356 221 92 114 122 282 249 250 259 252 59 8 288 323 340 349 349 322 332 343 355 26 17 352 331 294 266 237 228 307 43 359 332 320 311 287 215 190 179 174 175 174 173 176 179 177 176 176 175 172 168 170 170 169 170 170 168 166 166 166 165 165 163 161 159 158 156 157 155 154 154 147 144 144 142 144 144 143 140 138 139 137 135 132 129 127 123 119 120 118 116 113 109 108 108 109 109
351 297 167 235 167 237 259 256 279 273 33 322 290 309 335 348 343 320 331 345 342 353 347 348 339 271 276 320 255 92 60 4 327 304 306 251 203 188 181 178 177 176 175 174 176 177 177 176 174 172 171 171 171 169 169 169 168 166 166 166 167 166 163 163 160 159 159 159 157 155 152 147 147 145 143 145 145 144 142 140 140 138 136 135 130 129 127 121 119 118 118 114 111 108 108 109 108
354 337 205 241 190 217 251 250 273 264 263 282 288 298 342 336 326 314 317 327 331 326 326 348 331 264 330 310 271 95 40 354 336 312 314 222 194 185 182 182 181 179 178 176 174 175 177 177 175 175 175 174 171 169 170 170 168 167 166 167 168 165 163 165 161 160 162 162 159 154 151 148 147 147 145 146 146 145 144 143 142 140 138 136 133 133 130 124 121 120 120 116 113 109 107 108 108
360 354 217 213 204 223 237 244 238 227 239 272 286 297 331 331 318 296 302 319 326 323 338 343 297 274 334 301 286 50 5 351 341 322 313 222 193 185 184 185 185 181 180 180 178 176 176 177 177 178 178 175 171 170 171 170 168 168 168 167 168 166 165 166 162 162 164 163 158 152 151 150 147 148 148 148 148 146 146 144 143 142 139 138 136 137 132 125 124 123 121 117 114 111 109 108 108
200 45 283 224 219 234 265 261 246 250 242 281 283 290 5 344 307 286 292 303 309 312 324 341 315 316 313 278 289 48 16 2 351 332 311 229 197 191 187 187 187 184 182 181 180 178 176 176 179 181 180 176 171 172 172 170 169 169 170 168 167 166 166 165 162 163 165 164 158 151 150 151 149 149 151 150 149 147 148 145 144 144 141 140 138 139 134 127 126 126 123 119 115 113 111 110 109
252 140 227 241 243 278 327 289 293 301 277 281 274 104 24 319 285 293 313 307 317 309 308 11 344 313 289 263 271 101 29 9 360 341 316 229 201 195 191 190 188 186 184 182 180 180 179 178 180 182 182 178 173 177 176 173 173 171 172 169 167 167 167 165 163 164 165 163 158 151 148 151 152 151 152 151 150 149 148 146 146 145 143 141 140 140 134 129 129 127 125 119 117 116 112 112 111
308 165 235 250 333 297 306 289 300 303 288 315 54 53 344 312 304 313 319 305 302 301 337 18 331 285 271 279 261 140 21 4 356 343 328 240 204 197 193 194 193 188 186 185 182 182 181 180 182 182 183 180 176 179 177 175 176 173 173 171 168 168 168 166 165 167 166 162 158 153 150 151 154 154 153 152 151 150 148 148 148 146 145 143 142 141 135 132 130 127 126 122 120 118 115 114 111
321 194 278 278 44 274 262 287 318 306 330 79 34 357 334 312 327 305 300 300 295 306 333 333 312 274 275 287 265 82 3 352 348 345 329 245 203 198 196 195 196 191 188 187 185 184 183 183 184 182 184 182 179 181 177 176 179 176 175 173 169 169 168 166 167 169 166 162 159 156 153 153 154 153 152 152 151 150 149 149 149 148 146 144 143 141 137 134 132 130 128 126 124 119 118 115 113
336 257 294 233 194 251 229 284 339 303 354 65 40 340 318 297 266 279 293 302 302 337 320 307 253 266 313 319 314 15 350 344 345 341 329 249 200 197 198 194 194 192 191 189 188 187 185 185 185 185 186 184 180 179 176 176 179 177 175 173 170 170 168 166 169 169 164 161 158 156 155 154 153 153 153 152 151 151 150 150 150 149 147 145 143 142 138 135 133 133 130 129 126 122 120 115 119
341 292 265 248 257 263 180 210 311 280 360 57 94 319 308 285 163 284 317 299 295 300 295 269 211 275 302 299 318 3 344 342 345 333 328 266 208 194 193 194 194 194 194 192 192 190 188 187 187 188 186 185 181 177 175 174 176 178 177 174 171 170 168 167 172 169 161 159 157 155 156 154 151 154 157 153 152 151 151 151 151 150 149 146 144 142 139 137 136 133 132 131 128 126 120 117 129
292 260 264 272 266 280 143 195 253 328 337 318 216 343 308 295 209 278 308 255 271 278 269 263 256 272 281 291 317 335 333 340 343 325 301 263 217 201 194 194 194 195 197 195 195 192 191 190 189 189 186 182 179 174 173 174 176 178 175 172 171 172 169 168 171 169 164 161 159 157 157 155 152 156 157 153 154 155 153 152 151 150 149 147 144 141 140 138 136 134 132 130 131 129 121 124 138
268 245 283 287 291 329 58 253 307 322 304 296 298 330 300 299 309 339 311 260 251 269 275 267 257 254 261 276 286 301 320 329 332 321 288 255 219 215 206 204 199 197 198 196 197 195 193 192 191 190 186 182 178 175 176 177 179 179 175 173 173 174 171 169 170 170 169 165 163 160 155 154 155 155 154 154 157 159 158 153 151 150 149 148 143 140 143 144 139 132 132 134 135 132 125 133 142
289 250 276 284 354 10 23 294 292 275 295 305 300 304 281 295 322 341 311 288 281 283 283 268 256 248 234 249 280 303 317 317 317 312 291 266 237 227 221 222 210 202 201 198 199 200 196 193 194 192 187 184 182 182 183 181 181 180 177 174 175 175 174 173 172 172 171 168 168 164 156 154 156 156 158 159 156 156 161 158 155 154 150 148 143 141 148 160 159 140 137 142 139 137 134 138 141
341 275 264 318 21 311 268 261 264 278 299 301 302 329 290 286 308 302 294 296 289 276 276 277 291 301 288 291 308 315 316 313 312 302 287 272 255 239 229 224 216 211 207 205 202 199 197 194 195 193 188 185 185 186 186 183 182 183 178 176 179 178 177 177 176 174 171 170 171 168 163 161 160 161 167 168 161 156 161 163 161 158 155 151 151 153 158 175 182 152 144 147 140 142 143 141 139
119 253 290 48 40 300 248 225 265 288 290 292 301 315 295 290 272 259 280 297 287 269 247 270 303 315 315 315 318 319 315 311 310 303 291 277 265 251 240 228 222 218 213 216 209 196 196 197 195 194 190 187 187 188 187 184 183 184 182 180 181 181 180 178 176 177 175 173 174 171 167 166 163 163 168 173 171 165 165 168 165 162 161 159 164 167 169 182 181 152 149 149 143 146 144 138 135
218 229 333 35 214 294 8 156 280 294 284 285 290 294 297 297 252 247 249 263 277 324 41 291 300 310 311 311 308 309 309 308 310 307 299 285 274 260 251 241 233 226 221 226 220 203 199 200 198 195 192 189 190 190 188 185 183 184 184 183 182 181 181 179 177 177 177 177 178 175 168 167 165 164 169 173 172 171 172 173 169 168 167 166 172 177 174 176 165 152 154 153 150 149 143 135 129
270 180 341 257 228 270 312 5 283 292 284 281 286 289 296 286 272 254 238 244 261 292 316 303 298 300 303 301 294 294 296 304 308 306 305 294 281 271 268 264 251 238 233 235 227 213 205 203 202 198 194 191 190 191 189 186 184 184 185 186 183 181 181 180 178 176 176 178 179 177 173 171 169 168 170 171 170 173 176 177 175 173 173 172 177 180 177 173 160 156 159 158 154 149 141 131 123
265 249 166 254 234 259 287 315 294 287 278 279 296 282 272 271 284 301 250 254 265 284 298 297 294 294 290 285 287 291 288 287 290 295 300 294 278 271 276 277 271 253 239 238 229 217 209 207 207 201 194 190 188 190 189 186 185 186 186 186 185 184 184 182 181 179 177 178 178 178 177 176 175 173 172 174 175 177 177 179 180 177 177 178 179 182 187 181 166 163 164 162 156 149 141 130 123
228 283 320 267 249 265 288 300 286 280 276 273 224 254 260 261 289 295 268 273 280 286 297 292 293 296 280 275 283 289 289 282 277 283 288 288 278 268 270 265 261 254 239 238 232 221 211 210 210 201 194 190 189 190 188 187 187 188 187 187 187 187 187 185 184 182 180 179 179 180 181 178 178 179 178 180 181 182 182 182 184 183 183 183 184 190 200 189 174 170 169 165 159 151 142 133 126
256 307 302 279 283 290 300 292 273 274 275 245 231 265 269 255 287 273 257 274 299 280 283 275 291 294 287 283 281 280 283 285 282 284 286 284 274 264 265 258 252 250 244 237 234 230 218 214 213 203 195 193 192 189 189 190 188 186 186 188 189 188 188 187 185 185 184 183 184 188 191 186 184 185 185 185 185 186 187 185 187 189 188 189 192 199 201 189 179 175 172 167 160 154 145 136 129
306 296 290 278 287 297 297 279 266 282 269 231 274 287 284 220 215 265 216 183 267 287 285 273 288 292 292 287 286 282 271 279 288 290 289 284 272 260 262 254 247 249 248 238 233 237 228 219 217 208 198 193 192 190 189 190 187 186 185 186 187 187 188 187 185 185 184 185 190 193 192 191 191 190 190 188 185 186 189 189 190 191 192 194 198 201 196 187 182 178 175 171 163 157 149 138 133
295 298 288 275 286 279 261 263 272 295 276 228 277 283 283 177 204 248 175 154 270 296 297 293 295 296 297 291 289 288 274 280 288 280 282 285 283 279 278 266 251 250 249 242 236 236 232 224 218 210 200 193 192 190 187 186 188 188 185 184 185 186 188 188 187 186 184 186 191 191 190 192 194 192 190 189 185 186 190 190 192 194 196 198 199 201 196 187 183 181 177 174 169 163 155 145 139
203 312 297 284 272 222 214 262 272 283 316 309 289 280 252 183 215 227 168 234 293 294 298 300 297 294 298 298 293 286 284 288 281 270 277 285 291 292 288 280 265 256 252 248 244 239 234 227 220 210 200 194 193 191 187 186 188 187 184 185 186 187 188 190 189 188 187 188 190 192 194 195 195 193 190 190 191 191 192 192 193 196 197 199 199 200 197 190 184 181 177 173 171 165 160 152 144
206 138 307 295 278 207 176 268 279 253 303 325 310 304 265 203 209 201 162 268 299 300 301 302 297 294 293 295 294 287 280 274 269 272 279 287 293 292 289 286 278 264 259 253 246 244 239 232 222 211 201 195 192 191 188 186 187 184 183 186 188 188 188 190 191 190 190 191 192 195 197 196 194 193 193 194 194 193 193 193 195 196 197 200 200 199 197 192 187 183 178 173 169 166 164 158 151
247 171 190 294 313 235 148 181 305 266 275 336 322 293 290 275 239 209 175 264 300 304 303 299 294 292 288 287 284 279 269 261 260 266 273 278 287 289 284 285 284 273 265 258 251 246 239 233 225 213 204 198 193 190 188 188 187 184 185 188 188 188 189 190 190 191 192 192 194 195 195 195 194 195 197 197 194 193 194 194 196 198 198 198 198 197 195 192 189 186 181 177 174 172 171 165 158
320 288 270 62 309 302 128 115 332 322 326 320 304 275 289 299 291 230 170 274 303 303 300 298 291 284 281 281 272 265 263 263 259 258 262 264 272 281 283 282 280 277 269 261 255 248 237 228 223 215 208 202 195 191 189 189 188 186 188 190 188 188 190 191 189 191 192 191 192 192 192 193 194 195 197 197 194 194 196 197 199 200 198 196 196 194 192 192 191 188 185 185 182 179 180 177 168
99 313 306 307 296 312 332 119 128 355 335 293 252 276 289 289 300 301 280 298 308 299 295 296 295 288 280 276 267 260 259 265 266 262 259 257 259 268 280 281 276 274 273 265 254 246 235 223 219 215 208 204 197 191 188 187 187 187 187 188 186 187 190 190 189 190 191 189 189 189 190 192 194 194 194 196 198 198 199 201 202 201 198 196 194 190 189 192 192 188 185 185 188 188 189 189 183
124 44 294 284 275 296 305 240 126 346 303 276 250 256 271 278 295 300 297 304 301 290 291 296 300 295 286 277 268 262 257 256 260 262 264 267 269 271 278 281 277 275 274 267 253 242 233 221 216 211 205 201 194 190 187 183 183 183 183 183 183 185 187 187 187 188 189 189 188 188 188 190 192 192 193 195 198 200 201 204 204 200 197 194 190 187 188 191 191 188 185 182 184 190 193 196 196
279 286 289 293 275 259 272 280 36 355 296 277 272 260 271 285 295 295 294 295 283 279 281 287 290 286 284 278 271 266 258 254 251 254 264 276 280 280 283 283 277 275 275 270 253 239 230 217 212 204 197 194 189 187 185 180 178 179 177 175 177 180 183 183 183 184 187 188 187 187 188 190 191 193 194 195 194 195 199 202 202 197 194 190 187 186 186 187 188 188 188 184 180 183 190 194 198
260 267 269 280 281 269 272 281 21 1 303 275 267 272 284 294 296 295 296 286 264 267 267 268 267 267 268 266 264 260 257 255 252 252 259 271 278 283 286 284 277 276 279 273 250 233 224 212 204 194 189 187 183 181 180 176 173 173 171 169 172 176 178 180 182 182 185 187 187 186 187 189 192 195 194 193 192 190 192 195 195 194 192 188 187 186 185 186 186 187 189 189 183 180 185 188 189
236 240 249 251 265 280 282 283 49 19 316 276 269 288 290 290 288 290 294 283 257 255 254 254 253 255 256 257 260 259 258 258 256 257 263 270 276 280 282 282 278 275 276 270 247 226 218 208 199 187 182 182 181 178 177 175 172 170 169 168 170 172 175 178 178 180 182 184 185 185 186 188 191 195 195 191 187 185 187 190 190 191 189 188 188 187 186 187 187 187 188 190 188 185 187 190 186
224 238 262 262 252 269 288 311 192 29 338 291 298 304 289 285 286 287 287 268 253 249 250 254 257 260 261 262 264 265 265 265 265 262 263 271 277 275 276 278 276 270 266 257 238 223 212 205 198 186 181 182 183 183 182 179 178 176 172 170 171 171 173 175 174 176 180 180 182 183 185 187 188 189 190 189 186 185 186 187 189 190 188 187 189 189 189 190 191 192 190 189 192 194 196 198 191
232 240 266 283 279 269 286 34 133 302 317 298 316 314 292 288 289 284 272 249 254 259 259 265 271 272 274 277 280 285 286 280 273 269 265 275 288 285 275 273 271 270 264 245 229 220 207 199 196 186 181 183 184 185 185 184 182 179 174 171 172 170 170 174 174 176 177 178 181 184 187 188 185 183 183 184 186 190 190 188 189 191 191 188 187 189 190 192 195 196 194 192 195 198 200 203 200
224 249 272 286 345 343 285 70 359 300 283 287 306 299 286 292 284 265 252 232 267 275 264 265 266 267 274 283 288 289 288 285 280 276 272 282 296 292 279 274 272 272 264 239 220 213 203 196 193 186 182 184 184 184 184 182 179 175 172 169 169 167 166 168 170 172 175 177 180 185 187 187 185 182 181 182 185 192 196 194 192 192 194 190 187 188 189 192 194 195 196 196 199 200 199 202 206
216 230 258 286 325 319 273 320 329 304 259 263 296 286 271 274 231 250 223 166 267 267 261 265 262 266 278 283 284 280 281 287 286 282 280 288 298 291 280 277 272 271 262 237 214 205 201 194 191 187 183 183 183 183 180 175 171 169 165 160 159 160 159 160 161 165 172 178 181 184 187 189 188 187 184 184 186 190 196 198 196 194 193 190 187 188 189 191 193 194 195 198 206 209 205 204 208
258 217 239 281 305 299 291 324 333 308 238 154 317 302 283 149 237 267 264 253 276 261 250 267 281 304 307 299 295 293 293 297 295 290 289 292 295 288 280 277 270 266 259 239 214 201 197 193 191 189 186 181 178 182 180 174 171 169 165 161 158 155 156 164 170 173 176 180 185 187 188 190 190 189 188 188 188 191 194 198 199 197 193 189 186 187 191 192 192 194 197 203 212 216 214 211 210
307 197 227 260 297 299 303 328 336 304 306 4 340 307 299 303 288 283 302 301 288 279 272 287 312 316 309 302 298 302 305 306 304 297 294 294 292 287 281 277 271 264 258 239 213 201 195 192 192 189 184 177 177 181 180 176 173 171 172 172 170 166 166 173 178 180 179 180 184 187 187 188 189 189 189 190 190 191 192 193 198 199 194 190 188 188 191 193 193 194 197 206 213 218 217 213 214
310 94 333 289 296 294 300 312 255 279 316 315 353 317 289 293 294 239 333 306 287 281 290 310 318 308 307 307 304 309 311 310 307 301 298 296 291 287 284 280 272 265 258 233 210 201 192 190 189 184 178 173 176 179 179 179 177 175 176 175 173 173 173 176 178 176 176 179 181 183 185 186 188 190 190 192 192 191 191 190 192 194 194 195 193 191 193 195 198 197 196 204 211 218 219 214 216
18 109 28 344 299 282 282 263 227 280 306 247 126 14 280 278 285 223 203 279 284 290 301 307 304 304 311 316 316 316 314 310 308 305 302 299 292 288 287 284 274 263 254 229 207 197 186 182 180 174 170 170 176 179 176 176 178 178 178 174 173 176 176 174 173 171 173 176 178 180 184 185 187 191 193 194 194 193 193 192 192 194 195 198 198 198 201 204 204 201 201 207 210 215 218 217 219
59 141 138 107 117 114 99 112 151 238 272 202 112 25 316 289 287 281 227 278 299 311 314 308 304 308 319 326 323 319 315 311 307 305 298 293 293 293 292 288 275 260 250 225 201 189 178 169 168 166 164 165 173 178 176 174 176 177 176 174 174 177 175 171 168 167 170 173 175 179 184 185 187 191 193 195 195 195 195 196 197 198 199 202 204 206 209 208 204 201 203 213 218 217 219 222 227
331 263 228 161 131 99 106 95 93 234 249 118 110 66 11 305 286 293 328 320 319 319 316 315 315 320 330 333 325 321 318 315 310 308 302 293 292 294 294 287 273 259 245 212 185 174 166 160 162 162 160 162 168 172 175 178 179 177 177 177 177 177 174 168 165 166 169 172 174 178 183 184 185 189 191 192 195 196 197 199 201 202 204 206 207 207 207 205 202 201 205 215 222 221 221 227 232
298 273 258 245 192 151 160 127 118 268 285 106 116 33 333 262 274 310 319 335 312 309 310 312 316 323 332 330 325 324 319 314 313 312 310 301 296 295 292 284 268 251 229 190 167 163 161 161 164 163 161 165 167 169 173 178 180 178 179 181 181 180 176 172 169 169 171 172 175 178 181 183 184 187 190 192 195 197 197 200 203 205 207 205 202 202 201 199 199 203 210 218 221 219 221 227 231
260 258 274 295 315 347 299 203 197 267 325 114 142 330 262 240 258 291 305 314 252 282 286 299 315 326 329 324 321 321 316 315 317 315 314 312 310 307 297 284 256 228 198 164 155 159 160 160 166 166 164 168 170 171 171 175 178 179 182 185 184 183 181 179 177 176 176 176 177 179 181 182 185 188 191 194 197 198 200 202 205 206 205 201 199 199 197 195 197 202 211 218 218 219 223 228 231
290 286 312 334 2 346 319 316 290 290 350 128 171 242 265 267 264 274 304 317 242 260 266 289 324 331 325 320 316 317 316 319 321 319 320 322 321 320 313 279 219 188 167 150 146 154 155 157 165 165 163 168 171 172 170 171 175 178 184 188 188 186 184 184 183 180 179 180 182 183 185 186 188 190 193 197 199 201 202 205 206 205 202 200 198 196 195 195 197 203 210 214 216 220 225 228 227
33 313 312 336 60 322 303 318 311 304 316 265 180 218 254 293 332 32 310 275 248 251 267 310 336 334 327 322 320 321 322 325 330 331 329 329 328 330 353 144 158 144 140 139 139 147 151 153 161 160 160 166 169 172 171 169 170 173 183 189 189 188 186 186 186 183 180 182 184 186 188 189 190 192 195 199 202 204 204 206 206 204 201 200 197 194 196 198 199 204 209 212 214 217 220 222 221
124 222 278 318 75 263 272 339 346 323 314 283 202 257 254 270 304 318 251 239 249 257 286 331 340 340 334 327 328 333 335 336 342 346 343 341 342 358 82 107 116 120 126 134 137 143 146 149 156 158 161 165 166 170 171 170 169 170 180 187 188 186 185 185 185 185 184 185 186 188 190 190 192 195 197 200 204 205 206 207 206 202 200 199 197 195 198 200 201 206 210 210 210 213 215 216 215
148 186 209 68 26 280 257 6 94 128 269 276 231 274 278 279 286 266 179 237 272 297 323 342 345 346 338 327 333 343 346 349 352 358 1 2 12 38 76 99 109 113 123 133 138 144 148 151 155 154 157 162 165 169 171 172 173 173 179 183 185 185 186 187 188 188 188 188 189 190 190 191 193 197 200 202 204 205 207 208 206 201 198 198 199 197 197 199 202 209 211 209 208 211 213 213 212
249 199 126 115 97 322 282 277 284 195 244 258 220 272 286 305 296 182 197 281 307 326 339 343 347 352 343 332 339 347 352 358 359 3 11 19 35 55 68 88 107 111 113 125 134 142 149 156 159 156 154 158 164 170 171 173 175 176 179 183 185 186 187 189 191 191 190 190 191 190 190 193 195 198 201 203 204 205 207 208 207 203 199 199 200 199 198 198 204 209 210 210 210 210 212 211 209
340 108 123 130 265 197 173 284 322 308 291 284 247 271 272 244 257 294 297 308 320 330 342 346 348 352 343 333 338 348 357 4 2 1 12 27 45 69 83 90 101 106 107 118 129 136 140 149 155 156 155 156 162 167 168 172 175 176 180 183 185 187 187 189 192 192 191 191 191 191 193 196 196 198 202 204 204 205 206 208 207 205 203 201 201 202 199 199 205 210 211 213 212 210 212 210 206
47 148 136 26 308 305 301 349 348 275 302 313 306 319 289 221 217 282 289 308 320 325 335 340 342 345 336 330 335 345 358 8 8 4 12 29 45 72 98 102 103 107 110 117 125 130 135 140 144 149 155 159 164 168 168 171 176 177 179 181 183 186 189 191 194 195 195 194 194 193 195 196 196 198 202 204 205 205 206 207 207 206 205 203 203 204 201 201 208 213 216 217 213 212 211 208 205
160 195 176 153 142 33 283 154 104 266 285 307 308 305 293 263 186 239 261 299 320 319 321 314 323 339 331 324 328 342 1 14 19 16 17 26 38 56 86 102 106 109 112 117 122 127 132 137 140 146 152 156 161 166 167 169 175 180 181 182 183 186 190 193 195 198 199 198 197 196 197 197 197 199 202 203 204 204 206 207 206 207 205 203 203 203 203 205 210 215 218 217 214 213 211 206 205
196 207 192 174 152 150 236 233 101 345 264 257 304 295 288 281 175 223 228 216 306 310 308 297 292 330 329 316 318 339 1 15 32 34 26 27 35 46 64 88 105 109 111 114 120 125 130 135 141 146 152 157 160 161 163 165 172 178 181 183 184 184 189 193 194 196 200 201 199 199 200 199 198 201 202 203 203 204 206 207 207 206 205 204 204 204 205 207 210 214 217 216 213 212 211 209 208